Вернуться в каталог

USA 11

АктивенВоенныеGEO
NORAD 16116·PAYLOAD·🇺🇸 United States

Запущен Oct 3, 1985 с Cape Canaveral Space Force Station

Loading…

TLE

СвежийSource: Space-Track

Эпоха: Sep 14, 2026, 12:35 UTC

1 16116U 85092B   26257.52473596 -.00000117  00000-0  00000-0 0  9992
2 16116  14.3310 346.7713 0003441 225.5538 154.8721  0.99329055 26819

Отслеживайте USA 11 в реальном времени с AllMySat

Download on the App Store